,�O�C���x,�����t���O,�O�C���x,�����t���O,�󒲎����x,�����t���O,�󒲎����x,�����t���O,��󒲎����x,�����t���O,����,�����t���O
2003/1/1 0:00,8.1,0,43,0,19.2,0,52.6,0,14.7,0,13.4,0
2003/1/1 0:15,8.2,0,43,0,19.1,0,52.6,0,14.7,0,13.4,0
2003/1/1 0:30,8.3,0,42,0,19.1,0,52.6,0,14.7,0,13.4,0
2003/1/1 0:45,8.2,0,43,0,19.1,0,52.5,0,14.7,0,13.4,0
2003/1/1 1:00,8.2,0,43,0,19.1,0,52.6,0,14.7,0,13.5,0
2003/1/1 1:15,8.1,0,45,0,19.1,0,52.5,0,14.7,0,13.5,0
2003/1/1 1:30,7.9,0,47,0,19.1,0,52.5,0,14.7,0,13.5,0
2003/1/1 1:45,8.1,0,45,0,19.1,0,52.4,0,14.7,0,13.5,0
2003/1/1 2:00,8.2,0,43,0,19,0,52.4,0,14.7,0,13.6,0
2003/1/1 2:15,8.2,0,44,0,19,0,52.4,0,14.7,0,13.6,0
2003/1/1 2:30,8.3,0,45,0,19,0,52.4,0,14.7,0,13.6,0
2003/1/1 2:45,8.4,0,46,0,19,0,52.3,0,14.7,0,13.6,0
2003/1/1 3:00,8.4,0,48,0,19,0,52.4,0,14.7,0,13.7,0
2003/1/1 3:15,8.2,0,51,0,19,0,52.4,0,14.7,0,13.7,0
2003/1/1 3:30,8.1,0,53,0,19,0,52.3,0,14.7,0,13.7,0
2003/1/1 3:45,8.1,0,52,0,19,0,52.3,0,14.7,0,13.7,0
2003/1/1 4:00,8.1,0,47,0,18.9,0,52.4,0,14.7,0,13.8,0
2003/1/1 4:15,8,0,46,0,18.9,0,52.3,0,14.7,0,13.8,0
2003/1/1 4:30,7.9,0,45,0,18.9,0,52.3,0,14.7,0,13.8,0
2003/1/1 4:45,8,0,45,0,18.9,0,52.3,0,14.7,0,13.8,0
2003/1/1 5:00,7.8,0,46,0,18.9,0,52.3,0,14.7,0,13.9,0
2003/1/1 5:15,7.7,0,44,0,18.9,0,52.3,0,14.7,0,13.9,0
2003/1/1 5:30,7.9,0,47,0,18.9,0,52.2,0,14.7,0,13.9,0
2003/1/1 5:45,7.8,0,47,0,18.8,0,52.3,0,14.7,0,13.9,0
2003/1/1 6:00,7.9,0,46,0,18.8,0,52.2,0,14.7,0,13.9,0
2003/1/1 6:15,7.8,0,45,0,18.8,0,52.1,0,14.7,0,14,0
2003/1/1 6:30,7.9,0,47,0,18.8,0,52.2,0,14.7,0,14,0
2003/1/1 6:45,7.8,0,47,0,18.8,0,52.3,0,14.7,0,14,0
2003/1/1 7:00,7.7,0,49,0,18.8,0,52.2,0,14.7,0,14,0
2003/1/1 7:15,7.8,0,50,0,18.8,0,52.2,0,14.7,0,14,0
2003/1/1 7:30,7.7,0,49,0,18.7,0,52.2,0,14.6,0,14.1,0
2003/1/1 7:45,7.7,0,49,0,18.7,0,52.2,0,14.7,0,14.1,0
2003/1/1 8:00,7.7,0,50,0,18.7,0,52.2,0,14.6,0,14.1,0
2003/1/1 8:15,7.9,0,50,0,18.7,0,52.2,0,14.6,0,14.1,0
2003/1/1 8:30,7.9,0,52,0,18.7,0,52.2,0,14.7,0,14.1,0
2003/1/1 8:45,7.9,0,51,0,18.7,0,52.3,0,14.6,0,14.1,0
2003/1/1 9:00,7.9,0,50,0,18.7,0,52.2,0,14.6,0,14.2,0
2003/1/1 9:15,7.8,0,51,0,18.7,0,52.2,0,14.6,0,14.2,0
2003/1/1 9:30,7.9,0,49,0,18.8,0,52.6,0,14.7,0,14.2,0
2003/1/1 9:45,8,0,49,0,18.9,0,52.3,0,14.7,0,14.2,0
2003/1/1 10:00,8.2,0,48,0,19,0,52,0,14.7,0,14.2,0
2003/1/1 10:15,8.3,0,48,0,19,0,52,0,14.7,0,14.2,0
2003/1/1 10:30,8.4,0,46,0,19,0,52,0,14.7,0,14.2,0
2003/1/1 10:45,8.4,0,46,0,19,0,51.7,0,14.7,0,14.3,0
2003/1/1 11:00,8.2,0,48,0,19.1,0,51.9,0,14.7,0,14.3,0
2003/1/1 11:15,8.7,0,45,0,19.1,0,51.5,0,14.7,0,14.3,0
2003/1/1 11:30,8.4,0,46,0,19.1,0,51.8,0,14.7,0,14.3,0
2003/1/1 11:45,7.9,0,51,0,19,0,51.8,0,14.7,0,14.3,0
2003/1/1 12:00,7.6,0,51,0,19,0,52.1,0,14.7,0,14.3,0
2003/1/1 12:15,7.7,0,48,0,19.1,0,52,0,14.7,0,14.4,0
2003/1/1 12:30,7.9,0,48,0,19.2,0,51.8,0,14.7,0,14.4,0
2003/1/1 12:45,7.9,0,47,0,19.1,0,52,0,14.7,0,14.4,0
2003/1/1 13:00,7.8,0,54,0,19,0,51.8,0,14.7,0,14.4,0
2003/1/1 13:15,7.9,0,52,0,19.1,0,52.1,0,14.7,0,14.4,0
2003/1/1 13:30,7.9,0,50,0,19.2,0,51.9,0,14.7,0,14.4,0
2003/1/1 13:45,8,0,51,0,19.1,0,52,0,14.7,0,14.4,0
2003/1/1 14:00,7.8,0,53,0,19.1,0,51.8,0,14.7,0,14.4,0
2003/1/1 14:15,7.8,0,56,0,19,0,52.1,0,14.7,0,14.5,0
2003/1/1 14:30,8,0,54,0,18.9,0,52,0,14.7,0,14.5,0
2003/1/1 14:45,8,0,53,0,18.9,0,52,0,14.7,0,14.5,0
2003/1/1 15:00,8.2,0,51,0,18.9,0,52,0,14.7,0,14.5,0
2003/1/1 15:15,8.3,0,52,0,18.9,0,52.1,0,14.7,0,14.5,0
2003/1/1 15:30,8.2,0,52,0,18.8,0,52.1,0,14.7,0,14.5,0
2003/1/1 15:45,8.2,0,50,0,18.8,0,52.2,0,14.7,0,14.5,0
2003/1/1 16:00,7.9,0,47,0,18.8,0,52.3,0,14.7,0,14.5,0
2003/1/1 16:15,7.8,0,45,0,18.8,0,52.1,0,14.7,0,14.5,0
2003/1/1 16:30,7.6,0,46,0,18.7,0,52.1,0,14.7,0,14.6,0
2003/1/1 16:45,7.4,0,50,0,18.7,0,51.9,0,14.7,0,14.6,0
2003/1/1 17:00,7.4,0,53,0,18.7,0,51.9,0,14.7,0,14.6,0
2003/1/1 17:15,7.3,0,49,0,18.7,0,51.8,0,14.7,0,14.6,0
2003/1/1 17:30,7.3,0,49,0,18.6,0,51.8,0,14.6,0,14.6,0
2003/1/1 17:45,7.3,0,48,0,18.6,0,51.8,0,14.6,0,14.6,0
2003/1/1 18:00,7.4,0,51,0,18.6,0,51.8,0,14.6,0,14.6,0
2003/1/1 18:15,7.3,0,52,0,18.6,0,51.8,0,14.6,0,14.6,0
2003/1/1 18:30,7.4,0,52,0,18.6,0,51.8,0,14.6,0,14.6,0
2003/1/1 18:45,7.4,0,48,0,18.5,0,51.8,0,14.6,0,14.7,0
2003/1/1 19:00,7.3,0,50,0,18.5,0,51.8,0,14.6,0,14.7,0
2003/1/1 19:15,7.4,0,48,0,18.5,0,51.8,0,14.6,0,14.7,0
2003/1/1 19:30,7.2,0,47,0,18.5,0,51.8,0,14.6,0,14.7,0
2003/1/1 19:45,7.3,0,47,0,18.5,0,51.8,0,14.6,0,14.7,0
2003/1/1 20:00,7.3,0,47,0,18.4,0,51.8,0,14.6,0,14.7,0
2003/1/1 20:15,7.6,0,47,0,18.4,0,51.8,0,14.6,0,14.7,0
2003/1/1 20:30,7.4,0,44,0,18.4,0,51.8,0,14.5,0,14.7,0
2003/1/1 20:45,7.6,0,40,0,18.4,0,51.8,0,14.5,0,14.7,0
2003/1/1 21:00,7.6,0,40,0,18.4,0,51.8,0,14.5,0,14.7,0
2003/1/1 21:15,7.5,0,39,0,18.3,0,51.8,0,14.5,0,14.7,0
2003/1/1 21:30,7.5,0,39,0,18.3,0,51.8,0,14.5,0,14.7,0
2003/1/1 21:45,7.3,0,34,0,18.3,0,51.8,0,14.5,0,14.8,0
2003/1/1 22:00,7.3,0,34,0,18.3,0,51.8,0,14.5,0,14.8,0
2003/1/1 22:15,7.3,0,34,0,18.3,0,51.8,0,14.5,0,14.8,0
2003/1/1 22:30,7.3,0,36,0,18.3,0,51.9,0,14.5,0,14.8,0
2003/1/1 22:45,7.3,0,38,0,18.3,0,51.8,0,14.5,0,14.8,0
2003/1/1 23:00,7.3,0,40,0,18.2,0,51.8,0,14.5,0,14.8,0
2003/1/1 23:15,7.2,0,40,0,18.2,0,51.8,0,14.5,0,14.8,0
2003/1/1 23:30,7.2,0,39,0,18.2,0,51.8,0,14.5,0,14.8,0
2003/1/1 23:45,7.1,0,39,0,18.2,0,51.8,0,14.4,0,14.8,0
2003/1/2 0:00,7.1,0,36,0,18.1,0,51.8,0,14.4,0,14.8,0
2003/1/2 0:15,7,0,39,0,18.1,0,51.8,0,14.4,0,14.8,0
2003/1/2 0:30,7,0,39,0,18.1,0,51.8,0,14.4,0,14.8,0
2003/1/2 0:45,7,0,42,0,18.1,0,51.8,0,14.4,0,14.8,0
2003/1/2 1:00,6.9,0,41,0,18.1,0,51.8,0,14.4,0,14.8,0
2003/1/2 1:15,6.8,0,42,0,18.1,0,51.9,0,14.4,0,14.8,0
2003/1/2 1:30,6.7,0,42,0,18.1,0,51.8,0,14.4,0,14.8,0
2003/1/2 1:45,6.7,0,42,0,18,0,51.9,0,14.4,0,14.8,0
2003/1/2 2:00,6.6,0,44,0,18,0,51.8,0,14.4,0,14.9,0
2003/1/2 2:15,6.6,0,42,0,18,0,51.8,0,14.4,0,14.9,0
2003/1/2 2:30,6.7,0,43,0,18,0,51.8,0,14.4,0,14.9,0
2003/1/2 2:45,6.6,0,41,0,17.9,0,51.8,0,14.4,0,14.9,0
2003/1/2 3:00,6.6,0,42,0,17.9,0,51.9,0,14.4,0,14.9,0
2003/1/2 3:15,6.7,0,44,0,18,0,51.8,0,14.4,0,14.9,0
2003/1/2 3:30,6.4,0,46,0,17.9,0,51.8,0,14.3,0,14.9,0
2003/1/2 3:45,6.2,0,45,0,17.9,0,51.8,0,14.3,0,14.9,0
2003/1/2 4:00,6.1,0,42,0,17.9,0,51.8,0,14.3,0,14.9,0
2003/1/2 4:15,6.2,0,43,0,17.9,0,51.8,0,14.3,0,14.9,0
2003/1/2 4:30,6.1,0,46,0,17.8,0,51.8,0,14.3,0,14.9,0
2003/1/2 4:45,6.3,0,46,0,17.8,0,51.8,0,14.3,0,14.9,0
2003/1/2 5:00,6.1,0,50,0,17.8,0,51.8,0,14.3,0,14.9,0
2003/1/2 5:15,6.2,0,51,0,17.8,0,51.8,0,14.3,0,14.9,0
2003/1/2 5:30,6.3,0,49,0,17.8,0,51.8,0,14.3,0,14.9,0
2003/1/2 5:45,6.4,0,49,0,17.8,0,51.9,0,14.3,0,14.9,0
2003/1/2 6:00,6.4,0,50,0,17.8,0,51.8,0,14.3,0,14.9,0
2003/1/2 6:15,6.5,0,51,0,17.7,0,51.8,0,14.3,0,14.9,0
2003/1/2 6:30,6.7,0,50,0,17.7,0,51.9,0,14.3,0,14.9,0
2003/1/2 6:45,6.2,0,51,0,17.7,0,51.9,0,14.3,0,14.9,0
2003/1/2 7:00,6.2,0,51,0,17.7,0,51.9,0,14.3,0,14.9,0
2003/1/2 7:15,6.1,0,52,0,17.7,0,51.9,0,14.3,0,14.9,0
2003/1/2 7:30,6.1,0,52,0,17.7,0,51.9,0,14.3,0,14.9,0
2003/1/2 7:45,6.4,0,52,0,17.7,0,51.9,0,14.3,0,14.9,0
2003/1/2 8:00,6.4,0,52,0,17.7,0,51.9,0,14.3,0,14.9,0
2003/1/2 8:15,6.4,0,53,0,17.6,0,51.9,0,14.3,0,14.9,0
2003/1/2 8:30,6.7,0,52,0,17.6,0,51.9,0,14.3,0,14.9,0
2003/1/2 8:45,6.4,0,54,0,17.6,0,51.9,0,14.3,0,15,0
2003/1/2 9:00,6.7,0,54,0,17.6,0,52,0,14.3,0,15,0
2003/1/2 9:15,7,0,55,0,17.6,0,52,0,14.3,0,15,0
2003/1/2 9:30,6.8,0,54,0,17.6,0,52.1,0,14.3,0,15,0
2003/1/2 9:45,7.3,0,51,0,17.6,0,52.4,0,14.3,0,15,0
2003/1/2 10:00,7.7,0,49,0,17.8,0,52.1,0,14.3,0,15,0
2003/1/2 10:15,7.7,0,49,0,17.9,0,52.2,0,14.3,0,15,0
2003/1/2 10:30,7.9,0,50,0,18,0,51.9,0,14.3,0,15,0
2003/1/2 10:45,8.1,0,51,0,18.1,0,51.7,0,14.3,0,15,0
2003/1/2 11:00,8.1,0,55,0,18.2,0,51.6,0,14.3,0,15,0
2003/1/2 11:15,8.3,0,55,0,18.3,0,51.5,0,14.3,0,15,0
2003/1/2 11:30,8.7,0,53,0,18.3,0,51,0,14.4,0,15,0
2003/1/2 11:45,8.6,0,53,0,18.3,0,51.6,0,14.4,0,15,0
2003/1/2 12:00,9.1,0,52,0,18.4,0,51.4,0,14.4,0,15,0
2003/1/2 12:15,8.9,0,51,0,18.5,0,51.2,0,14.4,0,15,0
2003/1/2 12:30,9.1,0,51,0,18.5,0,50.9,0,14.4,0,15,0
2003/1/2 12:45,9.1,0,51,0,18.4,0,51.2,0,14.4,0,15,0
2003/1/2 13:00,8.9,0,53,0,18.2,0,51.6,0,14.4,0,15,0
2003/1/2 13:15,8.9,0,54,0,18.1,0,51.7,0,14.4,0,15,0
2003/1/2 13:30,8.9,0,54,0,18,0,52,0,14.4,0,15,0
2003/1/2 13:45,8.9,0,52,0,18,0,51.9,0,14.4,0,15,0
2003/1/2 14:00,8.9,0,52,0,17.9,0,52,0,14.4,0,15,0
2003/1/2 14:15,8.9,0,52,0,17.9,0,52,0,14.4,0,15,0
2003/1/2 14:30,8.9,0,52,0,17.9,0,52,0,14.4,0,15,0
2003/1/2 14:45,8.9,0,51,0,17.8,0,52,0,14.4,0,15,0
2003/1/2 15:00,8.9,0,50,0,17.8,0,52,0,14.4,0,15,0
2003/1/2 15:15,8.9,0,51,0,17.8,0,52.1,0,14.4,0,15,0
2003/1/2 15:30,8.9,0,50,0,17.8,0,52,0,14.4,0,15,0
2003/1/2 15:45,9.2,0,49,0,17.8,0,51.7,0,14.5,0,15,0
2003/1/2 16:00,12.7,0,56,0,17.5,0,46.2,0,14.5,0,15,0
2003/1/2 16:15,9.5,0,48,0,17.7,0,47,0,14.5,0,14.2,0
2003/1/2 16:30,8.9,0,49,0,17.7,0,48,0,14.5,0,14.2,0
2003/1/2 16:45,8.7,0,49,0,17.7,0,48.8,0,14.6,0,14.2,0
2003/1/2 17:00,8.7,0,48,0,17.7,0,49.3,0,14.6,0,14.2,0
2003/1/2 17:15,8.5,0,49,0,17.8,0,49.5,0,14.6,0,14.2,0
2003/1/2 17:30,8.4,0,49,0,17.9,0,50.7,0,14.5,0,14.2,0
2003/1/2 17:45,8.4,0,49,0,17.9,0,51.3,0,14.5,0,14.2,0
2003/1/2 18:00,8.5,0,49,0,17.9,0,51.7,0,14.5,0,14.3,0
2003/1/2 18:15,8.4,0,50,0,17.9,0,51.8,0,14.6,0,14.3,0
2003/1/2 18:30,8.1,0,52,0,17.9,0,51.8,0,14.6,0,14.3,0
2003/1/2 18:45,7.9,0,53,0,17.9,0,52,0,14.6,0,14.3,0
2003/1/2 19:00,8,0,54,0,17.9,0,52.1,0,14.6,0,14.3,0
2003/1/2 19:15,7.9,0,54,0,17.9,0,52.2,0,14.6,0,14.3,0
2003/1/2 19:30,7.8,0,54,0,17.9,0,52.4,0,14.6,0,14.3,0
2003/1/2 19:45,7.9,0,53,0,17.9,0,52.4,0,14.6,0,14.3,0
2003/1/2 20:00,7.9,0,54,0,17.9,0,52.6,0,14.6,0,14.3,0
2003/1/2 20:15,7.7,0,54,0,17.9,0,52.7,0,14.5,0,14.3,0
2003/1/2 20:30,7.8,0,54,0,17.9,0,52.7,0,14.6,0,14.4,0
2003/1/2 20:45,7.9,0,55,0,17.9,0,53,0,14.6,0,14.4,0
2003/1/2 21:00,7.6,0,54,0,17.9,0,53.2,0,14.5,0,14.4,0
2003/1/2 21:15,7.8,0,53,0,17.9,0,53.3,0,14.5,0,14.4,0
2003/1/2 21:30,7.8,0,53,0,17.9,0,53.2,0,14.5,0,14.4,0
2003/1/2 21:45,8,0,54,0,17.9,0,53.4,0,14.5,0,14.4,0
2003/1/2 22:00,7.8,0,55,0,17.9,0,53.5,0,14.5,0,14.4,0
2003/1/2 22:15,7.8,0,56,0,17.9,0,53.3,0,14.6,0,14.4,0
2003/1/2 22:30,7.6,0,58,0,17.9,0,53.3,0,14.6,0,14.4,0
2003/1/2 22:45,7.6,0,57,0,17.9,0,53,0,14.6,0,14.4,0
2003/1/2 23:00,7.6,0,56,0,17.9,0,53,0,14.6,0,14.4,0
2003/1/2 23:15,7.5,0,57,0,17.9,0,53.1,0,14.6,0,14.4,0
2003/1/2 23:30,7.3,0,58,0,17.9,0,53.1,0,14.6,0,14.5,0
2003/1/2 23:45,7.3,0,59,0,17.9,0,53.2,0,14.5,0,14.5,0
2003/1/3 0:00,7.3,0,60,0,17.9,0,53.1,0,14.5,0,14.5,0
2003/1/3 0:15,7.2,0,59,0,17.9,0,53.1,0,14.5,0,14.5,0
2003/1/3 0:30,7.1,0,60,0,17.8,0,53,0,14.5,0,14.5,0
2003/1/3 0:45,7.1,0,59,0,17.9,0,53.1,0,14.5,0,14.5,0
2003/1/3 1:00,7.3,0,58,0,17.9,0,53.2,0,14.5,0,14.5,0
2003/1/3 1:15,7.4,0,58,0,17.9,0,53.2,0,14.5,0,14.5,0
2003/1/3 1:30,7.4,0,58,0,17.8,0,53.2,0,14.5,0,14.5,0
2003/1/3 1:45,7.2,0,59,0,17.9,0,53.2,0,14.5,0,14.5,0
2003/1/3 2:00,7.3,0,60,0,17.9,0,53.2,0,14.5,0,14.5,0
2003/1/3 2:15,7.5,0,59,0,17.8,0,53.1,0,14.5,0,14.5,0
2003/1/3 2:30,7.5,0,59,0,17.8,0,53.8,0,14.5,0,13.3,0
2003/1/3 2:45,7.6,0,58,0,17.9,0,56.3,0,14.4,0,13.3,0
2003/1/3 3:00,7.6,0,58,0,17.9,0,55.4,0,14.4,0,13.4,0
2003/1/3 3:15,7.4,0,59,0,17.8,0,55.1,0,14.4,0,13.4,0
2003/1/3 3:30,7.6,0,59,0,17.8,0,55.1,0,14.4,0,13.4,0
2003/1/3 3:45,7.4,0,60,0,17.9,0,54.8,0,14.4,0,13.4,0
2003/1/3 4:00,7.2,0,61,0,17.8,0,54.7,0,14.4,0,13.4,0
2003/1/3 4:15,7.3,0,61,0,17.8,0,54.6,0,14.4,0,13.5,0
2003/1/3 4:30,7.4,0,61,0,17.8,0,54.5,0,14.4,0,13.5,0
2003/1/3 4:45,7.5,0,61,0,17.8,0,54.3,0,14.3,0,13.5,0
2003/1/3 5:00,7.6,0,60,0,17.8,0,53.7,0,14.3,0,13.5,0
2003/1/3 5:15,7.5,0,61,0,17.7,0,53.3,0,14.3,0,12.9,0
2003/1/3 5:30,7.6,0,61,0,17.7,0,52.9,0,14.3,0,13,0
2003/1/3 5:45,7.6,0,62,0,17.6,0,52.6,0,14.3,0,13,0
2003/1/3 6:00,7.6,0,65,0,17.6,0,52.3,0,14.2,0,13,0
2003/1/3 6:15,7.6,0,68,0,17.6,0,52.1,0,14.2,0,13,0
2003/1/3 6:30,7.5,0,69,0,17.6,0,52,0,14.2,0,13.1,0
2003/1/3 6:45,7.4,0,70,0,17.6,0,51.8,0,14.2,0,13.1,0
2003/1/3 7:00,7.3,0,72,0,17.5,0,51.8,0,14.2,0,13.1,0
2003/1/3 7:15,7.3,0,73,0,17.5,0,51.7,0,14.2,0,13.1,0
2003/1/3 7:30,7.2,0,73,0,17.5,0,51.8,0,14.1,0,13.2,0
2003/1/3 7:45,7.3,0,73,0,17.5,0,51.6,0,14.1,0,13.2,0
2003/1/3 8:00,7.3,0,73,0,17.5,0,51.5,0,14.1,0,13.2,0
2003/1/3 8:15,7.2,0,73,0,17.5,0,51.5,0,14.1,0,13.2,0
2003/1/3 8:30,7.3,0,74,0,17.4,0,51.5,0,14.1,0,13.3,0
2003/1/3 8:45,7.3,0,75,0,17.4,0,51.6,0,14.1,0,13.3,0
2003/1/3 9:00,7.3,0,77,0,17.4,0,51.5,0,14,0,13.3,0
2003/1/3 9:15,7.4,0,78,0,17.4,0,51.5,0,14,0,13.3,0
2003/1/3 9:30,7.4,0,80,0,17.3,0,51.4,0,14,0,13.4,0
2003/1/3 9:45,7.4,0,83,0,17.3,0,51.5,0,14,0,13.4,0
2003/1/3 10:00,7.5,0,85,0,17.3,0,51.9,0,14,0,13.4,0
2003/1/3 10:15,7.7,0,86,0,17.3,0,52.1,0,14,0,13.4,0
2003/1/3 10:30,7.9,0,86,0,17.4,0,53.1,0,14.1,0,13.4,0
2003/1/3 10:45,8.2,0,87,0,17.4,0,53.5,0,14.1,0,13.5,0
2003/1/3 11:00,8.2,0,86,0,17.5,0,54.3,0,14.1,0,13,0
2003/1/3 11:15,8.2,0,88,0,17.5,0,55.8,0,14.1,0,13,0
2003/1/3 11:30,8.2,0,89,0,17.5,0,57.5,0,14.1,0,13,0
2003/1/3 11:45,8.2,0,90,0,17.7,0,60,0,14.1,0,13.1,0
2003/1/3 12:00,8.3,0,89,0,17.7,0,59.5,0,14.2,0,13.1,0
2003/1/3 12:15,8.2,0,89,0,17.8,0,59.2,0,14.2,0,13.1,0
2003/1/3 12:30,8.2,0,89,0,17.7,0,58.7,0,14.2,0,13.1,0
2003/1/3 12:45,8.4,0,89,0,17.8,0,58.6,0,14.2,0,12.7,0
2003/1/3 13:00,8.4,0,89,0,17.8,0,57.3,0,14.2,0,12.7,0
2003/1/3 13:15,8.4,0,90,0,18,0,57.2,0,14.2,0,12.7,0
2003/1/3 13:30,8.6,0,89,0,18,0,57.4,0,14.2,0,12.7,0
2003/1/3 13:45,8.7,0,89,0,17.9,0,56.7,0,14.2,0,12.8,0
2003/1/3 14:00,8.8,0,89,0,17.9,0,56.8,0,14.2,0,12.8,0
2003/1/3 14:15,8.9,0,89,0,18,0,57,0,14.2,0,12.8,0
2003/1/3 14:30,8.8,0,89,0,17.9,0,56.7,0,14.2,0,12.9,0
2003/1/3 14:45,8.9,0,89,0,18,0,56.7,0,14.2,0,12.9,0
2003/1/3 15:00,9,0,90,0,18.1,0,57.2,0,14.2,0,12.9,0
2003/1/3 15:15,8.9,0,91,0,18.1,0,57,0,14.2,0,12.9,0
2003/1/3 15:30,8.9,0,92,0,18,0,56.1,0,14.2,0,13,0
2003/1/3 15:45,9,0,92,0,17.9,0,55.8,0,14.3,0,13,0
2003/1/3 16:00,9,0,91,0,17.9,0,56,0,14.3,0,13,0
2003/1/3 16:15,9.3,0,90,0,17.9,0,55.9,0,14.3,0,12.8,0
2003/1/3 16:30,8.7,0,89,0,17.9,0,55.9,0,14.3,0,12.8,0
2003/1/3 16:45,9.2,0,84,0,17.7,0,55.1,0,14.4,0,12.8,0
2003/1/3 17:00,8.5,0,85,0,17.7,0,56.3,0,14.5,0,12.9,0
2003/1/3 17:15,8.7,0,86,0,17.7,0,56.8,0,14.6,0,12.9,0
2003/1/3 17:30,8.2,0,86,0,17.7,0,57.5,0,14.6,0,12.9,0
2003/1/3 17:45,8.1,0,83,0,17.8,0,59,0,14.7,0,12.9,0
2003/1/3 18:00,8.1,0,82,0,17.8,0,60.2,0,14.7,0,13,0
2003/1/3 18:15,8.4,0,79,0,17.9,0,61.9,0,14.7,0,13,0
2003/1/3 18:30,8.1,0,76,0,18.2,0,69.2,0,14.7,0,12.6,0
2003/1/3 18:45,7.9,0,68,0,18.4,0,70.9,0,14.6,0,12.6,0
2003/1/3 19:00,7.7,0,69,0,18.1,0,64.5,0,14.6,0,12.7,0
2003/1/3 19:15,7.6,0,65,0,18.1,0,61.7,0,14.5,0,12.7,0
2003/1/3 19:30,7.6,0,61,0,18.2,0,61.2,0,14.5,0,12.7,0
2003/1/3 19:45,7.6,0,59,0,18.3,0,63.4,0,14.4,0,12.7,0
2003/1/3 20:00,7.5,0,57,0,18.4,0,69,0,14.4,0,12.4,0
2003/1/3 20:15,7.4,0,55,0,18.4,0,68.3,0,14.4,0,12.4,0
2003/1/3 20:30,7.3,0,54,0,18.4,0,67.7,0,14.4,0,12.2,0
2003/1/3 20:45,7.3,0,55,0,18.4,0,67.4,0,14.3,0,12.2,0
2003/1/3 21:00,7.1,0,56,0,18.4,0,67.3,0,14.3,0,12.3,0
2003/1/3 21:15,6.9,0,56,0,18.4,0,66.8,0,14.3,0,12.3,0
2003/1/3 21:30,6.9,0,55,0,18.4,0,66.4,0,14.4,0,12.3,0
2003/1/3 21:45,6.8,0,55,0,18.3,0,66.5,0,14.4,0,12.4,0
2003/1/3 22:00,6.7,0,50,0,18.3,0,67.2,0,14.5,0,12.4,0
2003/1/3 22:15,6.7,0,50,0,18.4,0,68.5,0,14.5,0,12.4,0
2003/1/3 22:30,6.3,0,52,0,18.8,0,68.1,0,14.6,0,12.5,0
2003/1/3 22:45,6.3,0,51,0,18.6,0,67.8,0,14.7,0,12.5,0
2003/1/3 23:00,6.1,0,50,0,18.6,0,67.3,0,14.6,0,12.5,0
2003/1/3 23:15,5.8,0,50,0,18.6,0,67.1,0,14.6,0,12.6,0
2003/1/3 23:30,5.9,0,50,0,18.6,0,66.2,0,14.6,0,12.6,0
2003/1/3 23:45,6,0,51,0,18.6,0,66.8,0,14.6,0,12.6,0
2003/1/4 0:00,6,0,47,0,18.5,0,67,0,14.6,0,12.7,0
2003/1/4 0:15,5.9,0,46,0,18.6,0,69.8,0,14.6,0,12.7,0
2003/1/4 0:30,5.9,0,46,0,18.6,0,71.5,0,14.6,0,12.8,0
2003/1/4 0:45,5.9,0,49,0,18.5,0,69.7,0,14.6,0,12.8,0
2003/1/4 1:00,5.8,0,51,0,19,0,70.2,0,14.6,0,12.8,0
2003/1/4 1:15,5.8,0,51,0,18.6,0,71.5,0,14.6,0,12.9,0
2003/1/4 1:30,5.9,0,50,0,18.4,0,68.4,0,14.6,0,12.9,0
2003/1/4 1:45,5.8,0,52,0,18.3,0,66.7,0,14.6,0,13,0
2003/1/4 2:00,5.4,0,55,0,18.3,0,65.8,0,14.6,0,13,0
2003/1/4 2:15,5.2,0,58,0,18.2,0,65.5,0,14.7,0,13.1,0
2003/1/4 2:30,5.3,0,54,0,18.1,0,61.5,0,14.7,0,13.1,0
2003/1/4 2:45,5.3,0,55,0,18.1,0,61.6,0,14.7,0,13.1,0
2003/1/4 3:00,5,0,57,0,18,0,61.4,0,14.7,0,13.2,0
2003/1/4 3:15,5,0,54,0,18,0,60.9,0,14.6,0,13.2,0
2003/1/4 3:30,4.6,0,61,0,18,0,60.5,0,14.6,0,13.3,0
2003/1/4 3:45,4.9,0,61,0,17.9,0,60.1,0,14.5,0,13.3,0
2003/1/4 4:00,4.8,0,61,0,17.9,0,59.8,0,14.5,0,13.3,0
2003/1/4 4:15,5,0,56,0,17.9,0,59.5,0,14.5,0,13.4,0
2003/1/4 4:30,4.4,0,62,0,17.8,0,59.1,0,14.4,0,13.4,0
2003/1/4 4:45,4.5,0,61,0,17.8,0,58.8,0,14.4,0,13.4,0
2003/1/4 5:00,4.6,0,64,0,17.8,0,58.5,0,14.4,0,13.5,0
2003/1/4 5:15,4.1,0,66,0,17.8,0,58.1,0,14.3,0,13.5,0
2003/1/4 5:30,4.1,0,63,0,17.7,0,57.9,0,14.3,0,13.5,0
2003/1/4 5:45,4.1,0,58,0,17.7,0,57.5,0,14.3,0,13.6,0
2003/1/4 6:00,4.2,0,58,0,17.7,0,57.1,0,14.2,0,13.6,0
2003/1/4 6:15,4.3,0,55,0,17.7,0,56.9,0,14.2,0,13.6,0
2003/1/4 6:30,4.2,0,53,0,17.7,0,56.7,0,14.1,0,13.6,0
2003/1/4 6:45,4.5,0,52,0,17.6,0,56.5,0,14.1,0,13.7,0
2003/1/4 7:00,4.4,0,52,0,17.6,0,56.3,0,14.1,0,13.7,0
2003/1/4 7:15,4.4,0,50,0,17.6,0,56,0,14,0,13.7,0
2003/1/4 7:30,4.4,0,50,0,17.6,0,57.1,0,14,0,13.7,0
2003/1/4 7:45,4.3,0,52,0,17.6,0,57.9,0,14,0,13,0
2003/1/4 8:00,4.3,0,51,0,17.6,0,58.4,0,13.9,0,13,0
2003/1/4 8:15,4.3,0,52,0,17.7,0,59.6,0,13.9,0,13.1,0
2003/1/4 8:30,4.2,0,53,0,17.8,0,60.4,0,13.9,0,12.8,0
2003/1/4 8:45,4.3,0,53,0,17.8,0,60.5,0,13.9,0,12.8,0
2003/1/4 9:00,4.4,0,55,0,17.9,0,61.9,0,14,0,12.8,0
2003/1/4 9:15,4.4,0,53,0,18.2,0,62.6,0,14,0,12.9,0
2003/1/4 9:30,4.4,0,57,0,18.3,0,63.3,0,14,0,12.9,0
2003/1/4 9:45,4.4,0,54,0,18.2,0,63.1,0,14,0,12.7,0
2003/1/4 10:00,4.5,0,55,0,18,0,58.9,0,14.1,0,11.9,0
2003/1/4 10:15,4.5,0,55,0,18.1,0,61.1,0,14.1,0,11.9,0
2003/1/4 10:30,4.5,0,55,0,18.1,0,62,0,14.1,0,12,0
2003/1/4 10:45,4.5,0,57,0,18,0,62.3,0,14.2,0,12,0
2003/1/4 11:00,4.8,0,55,0,17.9,0,62.6,0,14.2,0,11.9,0
2003/1/4 11:15,4.5,0,58,0,17.8,0,59.3,0,14.1,0,12,0
2003/1/4 11:30,4.7,0,57,0,17.9,0,61.3,0,14.2,0,12,0
2003/1/4 11:45,4.3,0,61,0,17.9,0,62.3,0,14.2,0,12,0
2003/1/4 12:00,4.4,0,63,0,17.9,0,63.4,0,14.2,0,12.1,0
2003/1/4 12:15,4.4,0,64,0,17.9,0,63.5,0,14.2,0,12.1,0
2003/1/4 12:30,4,0,72,0,17.9,0,62.2,0,14.2,0,12.1,0
2003/1/4 12:45,4,0,75,0,18,0,61.4,0,14.3,0,12,0
2003/1/4 13:00,4.2,0,72,0,18.1,0,62.6,0,14.3,0,12,0
2003/1/4 13:15,4,0,71,0,18.1,0,63.7,0,14.3,0,12.1,0
2003/1/4 13:30,3.9,0,74,0,18.1,0,64.2,0,14.3,0,12.1,0
2003/1/4 13:45,3.8,0,72,0,18.1,0,64.4,0,14.3,0,12.1,0
2003/1/4 14:00,4,0,65,0,18.1,0,64.9,0,14.3,0,12.2,0
2003/1/4 14:15,4,0,65,0,18.1,0,64.7,0,14.3,0,12.2,0
2003/1/4 14:30,3.9,0,65,0,18,0,64.4,0,14.3,0,12.2,0
2003/1/4 14:45,3.5,0,66,0,18,0,64.6,0,14.3,0,12.2,0
2003/1/4 15:00,3.5,0,68,0,17.9,0,57.3,0,14.3,0,12.2,0
2003/1/4 15:15,3.4,0,69,0,18,0,63.1,0,14.3,0,12.2,0
2003/1/4 15:30,3.5,0,68,0,18,0,64,0,14.3,0,12.3,0
2003/1/4 15:45,3.8,0,66,0,17.8,0,59.4,0,14.3,0,12.3,0
2003/1/4 16:00,6.3,0,65,0,16.4,0,42.3,0,13.9,0,12.3,0
2003/1/4 16:15,3.5,0,56,0,16,0,37.5,0,12.8,0,12.4,0
2003/1/4 16:30,3,0,61,0,16.2,0,40.8,0,12.6,0,12.4,0
2003/1/4 16:45,3.4,0,55,0,16.5,0,45.7,0,12.8,0,11.9,0
2003/1/4 17:00,3.6,0,52,0,16.6,0,47.6,0,13,0,11.9,0
2003/1/4 17:15,3.6,0,49,0,16.7,0,50.3,0,13.2,0,12.2,0
2003/1/4 17:30,3.5,0,48,0,16.7,0,50.6,0,13.3,0,12.3,0
2003/1/4 17:45,3.5,0,47,0,16.8,0,51.7,0,13.4,0,12.3,0
2003/1/4 18:00,3.3,0,47,0,16.8,0,54.3,0,13.5,0,12.3,0
2003/1/4 18:15,3.3,0,45,0,16.9,0,55.8,0,13.5,0,12.3,0
2003/1/4 18:30,3.2,0,45,0,17,0,55.8,0,13.5,0,12.3,0
2003/1/4 18:45,3.3,0,45,0,17.2,0,59.8,0,13.6,0,12,0
2003/1/4 19:00,3,0,45,0,17.2,0,56.4,0,13.6,0,12,0
2003/1/4 19:15,3,0,44,0,17.3,0,55,0,13.6,0,11.7,0
2003/1/4 19:30,2.8,0,43,0,17,0,47.8,0,13.6,0,11.4,0
2003/1/4 19:45,2.8,0,42,0,17.2,0,56.2,0,13.5,0,11.4,0
2003/1/4 20:00,2.6,0,45,0,17.3,0,55.6,0,13.5,0,11.5,0
2003/1/4 20:15,2.6,0,45,0,17.3,0,50.2,0,13.4,0,11.5,0
2003/1/4 20:30,2.4,0,48,0,17.2,0,48.8,0,13.4,0,11.5,0
2003/1/4 20:45,2.2,0,52,0,17.2,0,49.4,0,13.3,0,11.5,0
2003/1/4 21:00,2,0,57,0,17.3,0,51,0,13.3,0,11.4,0
2003/1/4 21:15,2.3,0,50,0,17.3,0,51.3,0,13.3,0,11.5,0
2003/1/4 21:30,1.7,0,57,0,17.3,0,51.2,0,13.2,0,11.5,0
2003/1/4 21:45,1.8,0,56,0,17.2,0,46.3,0,13.2,0,11.5,0
2003/1/4 22:00,2.5,0,59,0,16.1,0,42.1,0,13.1,0,11.5,0
2003/1/4 22:15,1.8,0,60,0,16.6,0,45.5,0,13,0,11.6,0
2003/1/4 22:30,1.6,0,63,0,16.8,0,48.7,0,13,0,11.6,0
2003/1/4 22:45,1.8,0,61,0,16.8,0,49.9,0,13,0,11.4,0
2003/1/4 23:00,1.5,0,68,0,17.1,0,50.6,0,13,0,11.4,0
2003/1/4 23:15,1.1,0,74,0,17.2,0,55.4,0,13,0,11.4,0
2003/1/4 23:30,1,0,82,0,17.2,0,55.4,0,13,0,11.4,0
2003/1/4 23:45,1.2,0,70,0,17.2,0,54.7,0,13.1,0,11.5,0
2003/1/5 0:00,0.9,0,72,0,17.2,0,54.5,0,13.1,0,11.5,0
2003/1/5 0:15,1.5,0,60,0,17.2,0,55.2,0,13.2,0,11.5,0
2003/1/5 0:30,1.4,0,59,0,17.3,0,56.5,0,13.2,0,11.6,0
2003/1/5 0:45,1.3,0,58,0,17.4,0,55.6,0,13.2,0,11.6,0
2003/1/5 1:00,1.3,0,57,0,17.4,0,55,0,13.2,0,11.6,0
2003/1/5 1:15,1.6,0,49,0,17.2,0,53.2,0,13.2,0,11.7,0
2003/1/5 1:30,1.5,0,59,0,17.4,0,57.4,0,13.3,0,11.7,0
2003/1/5 1:45,1.1,0,70,0,17.4,0,57.6,0,13.3,0,11.7,0
2003/1/5 2:00,0.8,0,68,0,17.4,0,58,0,13.3,0,11.5,0
2003/1/5 2:15,1,0,70,0,17.4,0,56.3,0,13.3,0,11.5,0
2003/1/5 2:30,0.7,0,72,0,17.3,0,55.7,0,13.3,0,11.2,0
2003/1/5 2:45,0.6,0,79,0,17.3,0,55.1,0,13.2,0,11.2,0
2003/1/5 3:00,0.5,0,70,0,17.2,0,54.5,0,13.2,0,11.2,0
2003/1/5 3:15,0.9,0,67,0,17.1,0,54.4,0,13.2,0,11.3,0
2003/1/5 3:30,1.1,0,70,0,17.1,0,54.3,0,13.2,0,11.3,0
2003/1/5 3:45,1.5,0,66,0,17.1,0,54.2,0,13.2,0,11.3,0
2003/1/5 4:00,1.3,0,54,0,17,0,54.1,0,13.2,0,11.4,0
2003/1/5 4:15,1.2,0,55,0,17,0,53.9,0,13.2,0,11.4,0
2003/1/5 4:30,1.1,0,55,0,17,0,53.8,0,13.2,0,11.5,0
2003/1/5 4:45,1.2,0,48,0,17,0,53.7,0,13.1,0,11.5,0
2003/1/5 5:00,1.5,0,47,0,16.9,0,53.7,0,13.1,0,11.5,0
2003/1/5 5:15,1.3,0,49,0,16.9,0,53.7,0,13.1,0,11.6,0
2003/1/5 5:30,1.4,0,52,0,16.9,0,53.7,0,13.1,0,11.6,0
2003/1/5 5:45,1.5,0,52,0,16.9,0,53.7,0,13.1,0,11.6,0
2003/1/5 6:00,1.4,0,54,0,16.8,0,53.6,0,13.1,0,11.7,0
2003/1/5 6:15,1.5,0,51,0,16.8,0,53.6,0,13.1,0,11.7,0
2003/1/5 6:30,1.5,0,48,0,16.8,0,53.5,0,13.1,0,11.7,0
2003/1/5 6:45,1.5,0,47,0,16.8,0,53.5,0,13.1,0,11.8,0
2003/1/5 7:00,1.5,0,47,0,16.8,0,53.5,0,13.1,0,11.8,0
2003/1/5 7:15,1.5,0,49,0,16.8,0,53.4,0,13.1,0,11.8,0
2003/1/5 7:30,1.6,0,51,0,16.7,0,53.3,0,13,0,11.9,0
2003/1/5 7:45,1.5,0,53,0,16.7,0,53.4,0,13,0,11.9,0
2003/1/5 8:00,1.4,0,55,0,16.7,0,53.4,0,13,0,11.9,0
2003/1/5 8:15,1.5,0,56,0,16.7,0,53.4,0,13,0,12,0
2003/1/5 8:30,1.5,0,54,0,16.7,0,54.5,0,13,0,11.7,0
2003/1/5 8:45,1.4,0,54,0,16.8,0,56.4,0,13,0,11.7,0
2003/1/5 9:00,1.4,0,53,0,16.9,0,58.1,0,13,0,11.7,0
2003/1/5 9:15,1.6,0,52,0,18.4,0,56.9,0,13,0,11.8,0
2003/1/5 9:30,1.8,0,54,0,18.7,0,55.1,0,13,0,11.8,0
2003/1/5 9:45,2.1,0,58,0,18,0,55.9,0,13,0,11.5,0
2003/1/5 10:00,2.5,0,60,0,17.5,0,56.6,0,13,0,11.2,0
2003/1/5 10:15,4,0,60,0,15.5,0,38.4,0,12.4,0,11.3,0
2003/1/5 10:30,3.3,0,58,0,14.6,0,36.3,0,11.3,0,11.3,0
2003/1/5 10:45,1.4,0,57,0,15.5,0,42.1,0,11.3,0,11.2,0
2003/1/5 11:00,1.3,0,58,0,16,0,45.2,0,11.5,0,11.3,0
2003/1/5 11:15,1.7,0,55,0,16.2,0,46.2,0,11.8,0,11.3,0
2003/1/5 11:30,2.2,0,51,0,16.6,0,48.6,0,12,0,11.3,0
2003/1/5 11:45,2,0,54,0,16.9,0,53.7,0,12.1,0,11.3,0
2003/1/5 12:00,2.9,0,56,0,17.1,0,58.1,0,12.2,0,11.3,0
2003/1/5 12:15,2.4,0,54,0,17.1,0,57.9,0,12.3,0,11,0
2003/1/5 12:30,2.5,0,52,0,17.1,0,57.3,0,12.5,0,11,0
2003/1/5 12:45,2.5,0,54,0,17,0,55.7,0,12.7,0,11,0
2003/1/5 13:00,4.3,0,60,0,16.9,0,54.8,0,12.8,0,10.8,0
2003/1/5 13:15,2.9,0,49,0,16.7,0,55.1,0,12.8,0,10.9,0
2003/1/5 13:30,2.5,0,57,0,16.7,0,56.9,0,12.9,0,10.9,0
2003/1/5 13:45,2.6,0,59,0,16.7,0,58.9,0,12.9,0,10.9,0
2003/1/5 14:00,3.1,0,59,0,16.6,0,57.5,0,12.9,0,11,0
2003/1/5 14:15,2.9,0,55,0,16.6,0,57,0,13,0,11,0
2003/1/5 14:30,2.8,0,53,0,16.5,0,56.6,0,13,0,11,0
2003/1/5 14:45,2.8,0,54,0,16.5,0,56.3,0,13,0,11,0
2003/1/5 15:00,3,0,52,0,16.4,0,56,0,13,0,11.1,0
2003/1/5 15:15,3,0,53,0,16.4,0,55.7,0,13,0,11.1,0